Location: D�derode
(51.8092°N, 10.1065°E)
Time: 21:18:07
(UTC+00:00)

Cosmos 1867 - Pass Details

Date: 01 December 2020
Orbit: 776 x 800 km, 65.0° (Epoch: 25 January)

Event Time Altitude Azimuth Distance (km) Brightness Sun altitude
Rises 16:32:26 0° 224° (SW) 3,272 8.0 -11.7°
Reaches altitude 10° 16:34:50 10° 225° (SW) 2,351 7.1 -12.1°
Maximum altitude 16:40:15 80° 313° (NW) 812 3.7 -12.8°
Enters shadow 16:44:56 15° 40° (NE) 2,073 5.2 -13.5°
